| time (UTC) | temp F | wind direction | speed knots | gust knots | rain 1hr in | rain 24hr in | rain mn in | humidity % | barometer mb |
| 20260901173354 | 86 | 351 | 0.0 | 0.9 | 0.00 | 0.00 | 0.00 | 46 | 1014.6 |
| 20260901172847 | 85 | 24 | 0.0 | 1.7 | 0.00 | 0.00 | 0.00 | 50 | 1014.6 |
| 20260901172342 | 85 | 136 | 0.0 | 1.7 | 0.00 | 0.00 | 0.00 | 48 | 1014.6 |
| 20260901171836 | 85 | 146 | 0.9 | 2.6 | 0.00 | 0.00 | 0.00 | 47 | 1014.7 |
| 20260901171603 | 85 | 149 | 0.9 | 2.6 | 0.00 | 0.00 | 0.00 | 46 | 1014.7 |
| 20260901171326 | 85 | 138 | 0.0 | 0.9 | 0.00 | 0.00 | 0.00 | 50 | 1014.8 |
| 20260901170318 | 84 | 115 | 0.0 | 0.9 | 0.00 | 0.00 | 0.00 | 47 | 1014.8 |
| 20260901165808 | 84 | 115 | 0.0 | 0.9 | 0.00 | 0.00 | 0.00 | 56 | 1014.7 |
| 20260901165306 | 84 | 77 | 0.0 | 0.9 | 0.00 | 0.00 | 0.00 | 57 | 1014.7 |
| 20260901164756 | 83 | 205 | 0.0 | 0.9 | 0.00 | 0.00 | 0.00 | 53 | 1014.7 |
| 20260901164522 | 83 | 129 | 0.0 | 0.9 | 0.00 | 0.00 | 0.00 | 58 | 1014.7 |
| 20260901163744 | 82 | 96 | 0.0 | 0.9 | 0.00 | 0.00 | 0.00 | 57 | 1014.6 |
| 20260901163238 | 82 | 8 | 0.0 | 0.9 | 0.00 | 0.00 | 0.00 | 57 | 1014.7 |
| 20260901162732 | 81 | 179 | 0.0 | 0.9 | 0.00 | 0.00 | 0.00 | 59 | 1014.6 |
| 20260901162226 | 81 | 49 | 0.0 | 0.9 | 0.00 | 0.00 | 0.00 | 61 | 1014.6 |
| 20260901161720 | 80 | 44 | 0.0 | 0.9 | 0.00 | 0.00 | 0.00 | 62 | 1014.6 |
| 20260901161214 | 80 | 129 | 0.0 | 0.9 | 0.00 | 0.00 | 0.00 | 63 | 1014.8 |
| 20260901160708 | 80 | 134 | 0.0 | 0.9 | 0.00 | 0.00 | 0.00 | 63 | 1014.8 |
| 20260901160432 | 80 | 103 | 0.0 | 1.7 | 0.00 | 0.00 | 0.00 | 64 | 1014.8 |
| 20260901155656 | 79 | 130 | 0.0 | 1.7 | 0.00 | 0.00 | 0.00 | 69 | 1014.8 |
| 20260901155150 | 79 | 201 | 0.0 | 0.9 | 0.00 | 0.00 | 0.00 | 69 | 1014.9 |
| 20260901154644 | 79 | 128 | 0.0 | 1.7 | 0.00 | 0.00 | 0.00 | 69 | 1014.8 |
| 20260901154138 | 78 | 130 | 0.0 | 1.7 | 0.00 | 0.00 | 0.00 | 70 | 1014.8 |
| 20260901153634 | 78 | 113 | 0.0 | 0.9 | 0.00 | 0.00 | 0.00 | 69 | 1014.8 |
| 20260901153629 | 78 | 96 | 0.0 | 0.9 | 0.00 | 0.00 | 0.00 | 71 | 1014.9 |
| 20260901152620 | 78 | 93 | 0.0 | 0.9 | 0.00 | 0.00 | 0.00 | 70 | 1014.9 |
| 20260901152114 | 78 | 72 | 0.0 | 0.9 | 0.00 | 0.00 | 0.00 | 69 | 1014.9 |
| 20260901151607 | 77 | 145 | 0.0 | 0.9 | 0.00 | 0.00 | 0.00 | 69 | 1014.8 |
| 20260901151102 | 77 | 125 | 0.0 | 0.9 | 0.00 | 0.00 | 0.00 | 72 | 1014.9 |
| 20260901150556 | 76 | 47 | 0.0 | 0.9 | 0.00 | 0.00 | 0.00 | 72 | 1014.9 |
| 20260901150050 | 76 | 104 | 0.0 | 0.9 | 0.00 | 0.00 | 0.00 | 73 | 1015.0 |
| 20260901145814 | 75 | 133 | 0.0 | 0.9 | 0.00 | 0.00 | 0.00 | 78 | 1015.0 |
| 20260901145038 | 74 | 136 | 0.0 | 1.7 | 0.00 | 0.00 | 0.00 | 78 | 1014.9 |
| 20260901144532 | 74 | 135 | 0.0 | 1.7 | 0.00 | 0.00 | 0.00 | 77 | 1014.9 |
| 20260901144026 | 73 | 111 | 0.0 | 1.7 | 0.00 | 0.00 | 0.00 | 78 | 1014.9 |
| 20260901143521 | 73 | 240 | 0.0 | 2.6 | 0.00 | 0.00 | 0.00 | 81 | 1015.0 |
| 20260901143516 | 72 | 140 | 0.0 | 2.6 | 0.00 | 0.00 | 0.00 | 83 | 1014.9 |
| 20260901142509 | 71 | 108 | 0.0 | 2.6 | 0.00 | 0.00 | 0.00 | 86 | 1014.9 |
| 20260901142001 | 70 | 149 | 0.0 | 1.7 | 0.00 | 0.00 | 0.00 | 88 | 1014.9 |
| 20260901141456 | 70 | 158 | 0.0 | 0.9 | 0.00 | 0.00 | 0.00 | 89 | 1014.9 |
| 20260901141218 | 69 | 97 | 0.0 | 1.7 | 0.00 | 0.00 | 0.00 | 90 | 1014.9 |
| 20260901141053 | 69 | 174 | 0.0 | 1.7 | 0.00 | 0.00 | 0.00 | 90 | 1014.9 |
| 20260901135938 | 68 | 107 | 0.0 | 1.7 | 0.00 | 0.00 | 0.00 | 92 | 1014.9 |
| 20260901135704 | 68 | 146 | 0.0 | 1.7 | 0.00 | 0.00 | 0.00 | 93 | 1015.0 |
| 20260901134926 | 67 | 169 | 0.0 | 1.7 | 0.00 | 0.00 | 0.00 | 94 | 1015.0 |
| 20260901134420 | 67 | 191 | 0.0 | 1.7 | 0.00 | 0.00 | 0.00 | 96 | 1015.1 |
| 20260901133914 | 66 | 132 | 0.0 | 1.7 | 0.00 | 0.00 | 0.00 | 97 | 1015.1 |
| 20260901133408 | 66 | 122 | 0.0 | 1.7 | 0.00 | 0.00 | 0.00 | 98 | 1015.0 |
| 20260901132902 | 65 | 134 | 0.0 | 1.7 | 0.00 | 0.00 | 0.00 | 98 | 1014.9 |
| 20260901132626 | 65 | 150 | 0.0 | 0.9 | 0.00 | 0.00 | 0.00 | 98 | 1014.9 |
| 20260901131849 | 64 | 121 | 0.0 | 0.0 | 0.00 | 0.00 | 0.00 | 98 | 1014.8 |
| 20260901131344 | 64 | 121 | 0.0 | 0.9 | 0.00 | 0.00 | 0.00 | 98 | 1014.7 |
| 20260901130838 | 63 | 122 | 0.0 | 0.9 | 0.00 | 0.00 | 0.00 | 98 | 1014.7 |
| 20260901130332 | 63 | 121 | 0.0 | 0.0 | 0.00 | 0.00 | 0.00 | 98 | 1014.7 |
| 20260901125826 | 63 | 121 | 0.0 | 0.0 | 0.00 | 0.00 | 0.00 | 97 | 1014.7 |
| 20260901125320 | 62 | 122 | 0.0 | 0.0 | 0.00 | 0.00 | 0.00 | 97 | 1014.6 |
| 20260901125048 | 62 | 121 | 0.0 | 0.0 | 0.00 | 0.00 | 0.00 | 97 | 1014.6 |
| 20260901124813 | 62 | 121 | 0.0 | 0.0 | 0.00 | 0.00 | 0.00 | 97 | 1014.6 |
| 20260901123802 | 61 | 121 | 0.0 | 0.0 | 0.00 | 0.00 | 0.00 | 97 | 1014.5 |
| 20260901123256 | 61 | 121 | 0.0 | 0.0 | 0.00 | 0.00 | 0.00 | 97 | 1014.5 |
| 20260901122750 | 60 | 121 | 0.0 | 0.0 | 0.00 | 0.00 | 0.00 | 97 | 1014.5 |
| 20260901122244 | 60 | 121 | 0.0 | 0.0 | 0.00 | 0.00 | 0.00 | 97 | 1014.5 |
| 20260901121738 | 60 | 122 | 0.0 | 0.0 | 0.00 | 0.00 | 0.00 | 97 | 1014.5 |
| 20260901121502 | 60 | 122 | 0.0 | 0.0 | 0.00 | 0.00 | 0.00 | 97 | 1014.5 |
| 20260901120726 | 61 | 121 | 0.0 | 0.0 | 0.00 | 0.00 | 0.00 | 97 | 1014.5 |
| 20260901120451 | 61 | 121 | 0.0 | 0.0 | 0.00 | 0.00 | 0.00 | 97 | 1014.4 |
| 20260901115714 | 61 | 121 | 0.0 | 0.0 | 0.00 | 0.00 | 0.00 | 97 | 1014.4 |
| 20260901115207 | 60 | 122 | 0.0 | 0.0 | 0.00 | 0.00 | 0.00 | 97 | 1014.2 |
| 20260901114701 | 60 | 121 | 0.0 | 0.0 | 0.00 | 0.00 | 0.00 | 97 | 1014.2 |
| 20260901114156 | 60 | 122 | 0.0 | 0.0 | 0.00 | 0.00 | 0.00 | 97 | 1014.1 |
| 20260901113650 | 60 | 122 | 0.0 | 0.0 | 0.00 | 0.00 | 0.00 | 97 | 1014.1 |
| 20260901113144 | 60 | 122 | 0.0 | 0.0 | 0.00 | 0.00 | 0.00 | 97 | 1014.1 |
| 20260901112910 | 60 | 121 | 0.0 | 0.0 | 0.00 | 0.00 | 0.00 | 97 | 1014.0 |
| 20260901112404 | 60 | 122 | 0.0 | 0.0 | 0.00 | 0.00 | 0.00 | 97 | 1014.0 |
| 20260901111626 | 58 | 121 | 0.0 | 0.0 | 0.00 | 0.00 | 0.00 | 97 | 1014.0 |
| 20260901111120 | 58 | 121 | 0.0 | 0.0 | 0.00 | 0.00 | 0.00 | 96 | 1014.0 |
| 20260901110846 | 58 | 121 | 0.0 | 0.0 | 0.00 | 0.00 | 0.00 | 96 | 1013.9 |
| 20260901110339 | 58 | 122 | 0.0 | 0.0 | 0.00 | 0.00 | 0.00 | 96 | 1013.9 |
| 20260901105602 | 58 | 121 | 0.0 | 0.0 | 0.00 | 0.00 | 0.00 | 96 | 1013.9 |
| 20260901105327 | 58 | 121 | 0.0 | 0.0 | 0.00 | 0.00 | 0.00 | 95 | 1014.0 |
| 20260901104822 | 58 | 121 | 0.0 | 0.0 | 0.00 | 0.00 | 0.00 | 96 | 1014.0 |
| 20260901104044 | 59 | 122 | 0.0 | 0.0 | 0.00 | 0.00 | 0.00 | 96 | 1013.9 |
| 20260901103538 | 59 | 122 | 0.0 | 0.0 | 0.00 | 0.00 | 0.00 | 96 | 1013.8 |
| 20260901103032 | 59 | 122 | 0.0 | 0.0 | 0.00 | 0.00 | 0.00 | 96 | 1013.8 |
| 20260901102525 | 60 | 122 | 0.0 | 0.0 | 0.00 | 0.00 | 0.00 | 96 | 1013.8 |
| 20260901102020 | 60 | 121 | 0.0 | 0.0 | 0.00 | 0.00 | 0.00 | 96 | 1013.8 |
| 20260901101514 | 60 | 121 | 0.0 | 0.0 | 0.00 | 0.00 | 0.00 | 97 | 1013.7 |
| 20260901101008 | 58 | 122 | 0.0 | 0.9 | 0.00 | 0.00 | 0.00 | 95 | 1013.6 |
| 20260901100502 | 59 | 121 | 0.0 | 0.9 | 0.00 | 0.00 | 0.00 | 95 | 1013.5 |
| 20260901095956 | 59 | 121 | 0.0 | 0.0 | 0.00 | 0.00 | 0.00 | 95 | 1013.5 |
| 20260901095451 | 60 | 122 | 0.0 | 0.0 | 0.00 | 0.00 | 0.00 | 95 | 1013.5 |
| 20260901095215 | 60 | 122 | 0.0 | 0.0 | 0.00 | 0.00 | 0.00 | 95 | 1013.4 |
| 20260901094437 | 61 | 122 | 0.0 | 0.0 | 0.00 | 0.00 | 0.00 | 97 | 1013.2 |
| 20260901093931 | 62 | 122 | 0.0 | 0.0 | 0.00 | 0.00 | 0.00 | 97 | 1013.1 |
| 20260901093426 | 61 | 121 | 0.0 | 0.0 | 0.00 | 0.00 | 0.00 | 96 | 1013.1 |
| 20260901092920 | 60 | 121 | 0.0 | 0.0 | 0.00 | 0.00 | 0.00 | 96 | 1013.0 |
| 20260901092414 | 60 | 122 | 0.0 | 0.0 | 0.00 | 0.00 | 0.00 | 95 | 1013.1 |
| 20260901091907 | 61 | 121 | 0.0 | 0.0 | 0.00 | 0.00 | 0.00 | 96 | 1013.1 |
| 20260901090856 | 62 | 121 | 0.0 | 0.0 | 0.00 | 0.00 | 0.00 | 96 | 1013.1 |
| 20260901090350 | 63 | 121 | 0.0 | 0.0 | 0.00 | 0.00 | 0.00 | 97 | 1013.2 |
| 20260901085844 | 62 | 122 | 0.0 | 0.0 | 0.00 | 0.00 | 0.00 | 97 | 1013.1 |
| 20260901085338 | 62 | 121 | 0.0 | 0.0 | 0.00 | 0.00 | 0.00 | 97 | 1013.1 |
| 20260901084832 | 62 | 121 | 0.0 | 0.0 | 0.00 | 0.00 | 0.00 | 97 | 1013.2 |
| 20260901084326 | 61 | 121 | 0.0 | 0.0 | 0.00 | 0.00 | 0.00 | 97 | 1013.2 |
| 20260901083820 | 61 | 121 | 0.0 | 0.0 | 0.00 | 0.00 | 0.00 | 96 | 1013.2 |
| 20260901083314 | 60 | 121 | 0.0 | 0.0 | 0.00 | 0.00 | 0.00 | 95 | 1013.1 |
| 20260901083039 | 60 | 122 | 0.0 | 0.0 | 0.00 | 0.00 | 0.00 | 95 | 1013.1 |
| 20260901082534 | 61 | 121 | 0.0 | 0.0 | 0.00 | 0.00 | 0.00 | 95 | 1013.1 |
| 20260901082028 | 62 | 122 | 0.0 | 0.0 | 0.00 | 0.00 | 0.00 | 96 | 1013.1 |
| 20260901081520 | 62 | 121 | 0.0 | 0.0 | 0.00 | 0.00 | 0.00 | 96 | 1013.1 |
| 20260901080744 | 62 | 122 | 0.0 | 0.0 | 0.00 | 0.00 | 0.00 | 96 | 1013.1 |
| 20260901080238 | 62 | 121 | 0.0 | 0.0 | 0.00 | 0.00 | 0.00 | 96 | 1013.1 |
| 20260901075732 | 62 | 122 | 0.0 | 0.0 | 0.00 | 0.00 | 0.00 | 96 | 1013.1 |
| 20260901075456 | 62 | 122 | 0.0 | 0.0 | 0.00 | 0.00 | 0.00 | 95 | 1013.2 |
| 20260901074719 | 62 | 122 | 0.0 | 0.0 | 0.00 | 0.00 | 0.00 | 95 | 1013.2 |
| 20260901074214 | 62 | 121 | 0.0 | 0.0 | 0.00 | 0.00 | 0.00 | 96 | 1013.4 |
| 20260901073940 | 63 | 121 | 0.0 | 0.0 | 0.00 | 0.00 | 0.00 | 96 | 1013.4 |
| 20260901073433 | 63 | 121 | 0.0 | 0.0 | 0.00 | 0.00 | 0.00 | 96 | 1013.4 |
| 20260901072656 | 62 | 121 | 0.0 | 0.0 | 0.00 | 0.00 | 0.00 | 96 | 1013.4 |
| 20260901072150 | 62 | 121 | 0.0 | 0.0 | 0.00 | 0.00 | 0.00 | 95 | 1013.5 |
| 20260901071916 | 62 | 122 | 0.0 | 0.0 | 0.00 | 0.00 | 0.00 | 95 | 1013.6 |
| 20260901071138 | 62 | 121 | 0.0 | 0.0 | 0.00 | 0.00 | 0.00 | 95 | 1013.7 |
| 20260901070632 | 63 | 122 | 0.0 | 0.0 | 0.00 | 0.00 | 0.00 | 96 | 1013.8 |
| 20260901070126 | 63 | 122 | 0.0 | 0.0 | 0.00 | 0.00 | 0.00 | 96 | 1013.7 |
| 20260901065620 | 62 | 121 | 0.0 | 0.0 | 0.00 | 0.00 | 0.00 | 95 | 1013.8 |
| 20260901065114 | 62 | 122 | 0.0 | 0.0 | 0.00 | 0.00 | 0.00 | 94 | 1013.8 |
| 20260901064838 | 62 | 121 | 0.0 | 0.0 | 0.00 | 0.00 | 0.00 | 94 | 1013.8 |
| 20260901064102 | 62 | 122 | 0.0 | 0.0 | 0.00 | 0.00 | 0.00 | 94 | 1013.9 |
| 20260901063556 | 63 | 122 | 0.0 | 0.0 | 0.00 | 0.00 | 0.00 | 95 | 1014.0 |
| 20260901063050 | 64 | 122 | 0.0 | 0.0 | 0.00 | 0.00 | 0.00 | 95 | 1014.0 |
| 20260901062544 | 63 | 122 | 0.0 | 0.0 | 0.00 | 0.00 | 0.00 | 96 | 1013.9 |
| 20260901062038 | 63 | 122 | 0.0 | 0.0 | 0.00 | 0.00 | 0.00 | 95 | 1013.7 |
| 20260901061532 | 63 | 121 | 0.0 | 0.0 | 0.00 | 0.00 | 0.00 | 95 | 1013.7 |
| 20260901061026 | 63 | 121 | 0.0 | 0.0 | 0.00 | 0.00 | 0.00 | 95 | 1013.7 |
| 20260901060520 | 63 | 122 | 0.0 | 0.0 | 0.00 | 0.00 | 0.00 | 95 | 1013.8 |
| 20260901060014 | 63 | 122 | 0.0 | 0.0 | 0.00 | 0.00 | 0.00 | 95 | 1013.7 |
| 20260901055508 | 63 | 122 | 0.0 | 0.0 | 0.00 | 0.00 | 0.00 | 94 | 1013.7 |
| 20260901055001 | 63 | 122 | 0.0 | 0.0 | 0.00 | 0.00 | 0.00 | 94 | 1013.7 |
| 20260901054456 | 63 | 121 | 0.0 | 0.0 | 0.00 | 0.00 | 0.00 | 94 | 1013.7 |
| 20260901053950 | 63 | 121 | 0.0 | 0.0 | 0.00 | 0.00 | 0.00 | 94 | 1013.6 |
| 20260901053450 | 63 | 122 | 0.0 | 0.0 | 0.00 | 0.00 | 0.00 | 94 | 1013.6 |
| 20260901053217 | 64 | 122 | 0.0 | 0.0 | 0.00 | 0.00 | 0.00 | 94 | 1013.6 |
| 20260901052446 | 64 | 121 | 0.0 | 0.0 | 0.00 | 0.00 | 0.00 | 93 | 1013.6 |
| 20260901051949 | 64 | 121 | 0.0 | 0.0 | 0.00 | 0.00 | 0.00 | 93 | 1013.6 |
| 20260901051446 | 64 | 121 | 0.0 | 0.0 | 0.00 | 0.00 | 0.00 | 93 | 1013.5 |
| 20260901050944 | 64 | 122 | 0.0 | 0.0 | 0.00 | 0.00 | 0.00 | 93 | 1013.4 |
| 20260901050441 | 65 | 121 | 0.0 | 0.0 | 0.00 | 0.00 | 0.00 | 93 | 1013.5 |
| 20260901045940 | 65 | 121 | 0.0 | 0.0 | 0.00 | 0.00 | 0.00 | 93 | 1013.4 |
| 20260901045440 | 65 | 121 | 0.0 | 0.0 | 0.00 | 0.00 | 0.00 | 93 | 1013.4 |
| 20260901044939 | 65 | 122 | 0.0 | 0.0 | 0.00 | 0.00 | 0.00 | 92 | 1013.4 |
| 20260901044439 | 65 | 122 | 0.0 | 0.0 | 0.00 | 0.00 | 0.00 | 92 | 1013.1 |
| 20260901043940 | 65 | 121 | 0.0 | 0.0 | 0.00 | 0.00 | 0.00 | 92 | 1013.1 |
| 20260901043441 | 66 | 121 | 0.0 | 0.0 | 0.00 | 0.00 | 0.00 | 91 | 1013.1 |
| 20260901043209 | 66 | 121 | 0.0 | 0.0 | 0.00 | 0.00 | 0.00 | 91 | 1013.0 |
| 20260901042435 | 66 | 121 | 0.0 | 0.0 | 0.00 | 0.00 | 0.00 | 91 | 1013.0 |
| 20260901041935 | 67 | 121 | 0.0 | 0.0 | 0.00 | 0.00 | 0.00 | 90 | 1013.0 |
| 20260901041707 | 67 | 121 | 0.0 | 0.0 | 0.00 | 0.00 | 0.00 | 90 | 1012.8 |
| 20260901040936 | 67 | 121 | 0.0 | 0.0 | 0.00 | 0.00 | 0.00 | 90 | 1012.9 |
| 20260901040436 | 67 | 122 | 0.0 | 0.0 | 0.00 | 0.00 | 0.00 | 90 | 1013.0 |
| 20260901035936 | 67 | 121 | 0.0 | 0.0 | 0.00 | 0.00 | 0.00 | 90 | 1013.0 |
| 20260901035706 | 67 | 121 | 0.0 | 0.0 | 0.00 | 0.00 | 0.00 | 90 | 1012.9 |
| 20260901034937 | 68 | 121 | 0.0 | 0.0 | 0.00 | 0.00 | 0.00 | 89 | 1013.0 |
| 20260901034433 | 68 | 122 | 0.0 | 0.0 | 0.00 | 0.00 | 0.00 | 89 | 1013.0 |
| 20260901033933 | 68 | 121 | 0.0 | 0.0 | 0.00 | 0.00 | 0.00 | 89 | 1013.1 |
| 20260901033438 | 69 | 121 | 0.0 | 0.0 | 0.00 | 0.00 | 0.00 | 88 | 1013.0 |
| 20260901033432 | 68 | 121 | 0.0 | 0.0 | 0.00 | 0.00 | 0.00 | 89 | 1013.1 |
| 20260901032433 | 69 | 122 | 0.0 | 0.0 | 0.00 | 0.00 | 0.00 | 88 | 1013.0 |
| 20260901031931 | 69 | 121 | 0.0 | 0.0 | 0.00 | 0.00 | 0.00 | 89 | 1012.9 |
| 20260901031433 | 69 | 121 | 0.0 | 0.0 | 0.00 | 0.00 | 0.00 | 89 | 1012.8 |
| 20260901030933 | 69 | 122 | 0.0 | 0.0 | 0.00 | 0.00 | 0.00 | 89 | 1012.9 |
| 20260901030708 | 68 | 121 | 0.0 | 0.0 | 0.00 | 0.00 | 0.00 | 89 | 1012.8 |
| 20260901025928 | 68 | 122 | 0.0 | 0.0 | 0.00 | 0.00 | 0.00 | 87 | 1012.8 |
| 20260901025429 | 69 | 122 | 0.0 | 0.0 | 0.00 | 0.00 | 0.00 | 87 | 1012.8 |
| 20260901024929 | 69 | 122 | 0.0 | 0.0 | 0.00 | 0.00 | 0.00 | 86 | 1012.8 |
| 20260901024427 | 69 | 121 | 0.0 | 0.0 | 0.00 | 0.00 | 0.00 | 85 | 1012.8 |
| 20260901023929 | 70 | 121 | 0.0 | 0.0 | 0.00 | 0.00 | 0.00 | 84 | 1012.7 |
| 20260901023426 | 70 | 122 | 0.0 | 0.0 | 0.00 | 0.00 | 0.00 | 84 | 1012.7 |
| 20260901022926 | 70 | 121 | 0.0 | 0.0 | 0.00 | 0.00 | 0.00 | 84 | 1012.6 |
| 20260901022429 | 71 | 121 | 0.0 | 0.0 | 0.00 | 0.00 | 0.00 | 84 | 1012.5 |
| 20260901021926 | 71 | 121 | 0.0 | 0.0 | 0.00 | 0.00 | 0.00 | 82 | 1012.6 |
| 20260901021425 | 72 | 121 | 0.0 | 0.0 | 0.00 | 0.00 | 0.00 | 81 | 1012.5 |
| 20260901020921 | 72 | 121 | 0.0 | 0.0 | 0.00 | 0.00 | 0.00 | 80 | 1012.5 |
| 20260901020424 | 73 | 121 | 0.0 | 0.0 | 0.00 | 0.00 | 0.00 | 79 | 1012.5 |
| 20260901015916 | 73 | 122 | 0.0 | 0.0 | 0.00 | 0.00 | 0.00 | 79 | 1012.5 |
| 20260901015418 | 73 | 122 | 0.0 | 0.0 | 0.00 | 0.00 | 0.00 | 79 | 1012.4 |
| 20260901014911 | 73 | 121 | 0.0 | 0.0 | 0.00 | 0.00 | 0.00 | 79 | 1012.4 |
| 20260901014410 | 74 | 122 | 0.0 | 0.0 | 0.00 | 0.00 | 0.00 | 79 | 1012.3 |
| 20260901013911 | 74 | 122 | 0.0 | 0.0 | 0.00 | 0.00 | 0.00 | 78 | 1012.2 |
| 20260901013646 | 74 | 121 | 0.0 | 0.0 | 0.00 | 0.00 | 0.00 | 77 | 1012.2 |
| 20260901013407 | 74 | 121 | 0.0 | 0.0 | 0.00 | 0.00 | 0.00 | 78 | 1012.2 |
| 20260901012407 | 75 | 121 | 0.0 | 0.0 | 0.00 | 0.00 | 0.00 | 76 | 1012.1 |
| 20260901011907 | 75 | 121 | 0.0 | 0.0 | 0.00 | 0.00 | 0.00 | 76 | 1012.1 |
| 20260901011403 | 76 | 121 | 0.0 | 0.0 | 0.00 | 0.00 | 0.00 | 75 | 1012.0 |
| 20260901011135 | 76 | 121 | 0.0 | 0.0 | 0.00 | 0.00 | 0.00 | 74 | 1012.0 |
| 20260901010404 | 77 | 122 | 0.0 | 0.0 | 0.00 | 0.00 | 0.00 | 73 | 1012.0 |
| 20260901005903 | 77 | 121 | 0.0 | 0.0 | 0.00 | 0.00 | 0.00 | 72 | 1012.0 |
| 20260901005405 | 78 | 122 | 0.0 | 0.0 | 0.00 | 0.00 | 0.00 | 71 | 1012.0 |
| 20260901004902 | 78 | 121 | 0.0 | 0.0 | 0.00 | 0.00 | 0.00 | 71 | 1012.0 |
| 20260901004359 | 79 | 121 | 0.0 | 0.0 | 0.00 | 0.00 | 0.00 | 70 | 1011.9 |
| 20260901004126 | 80 | 121 | 0.0 | 0.0 | 0.00 | 0.00 | 0.00 | 67 | 1011.9 |
| 20260901004000 | 79 | 121 | 0.0 | 0.0 | 0.00 | 0.00 | 0.00 | 68 | 1011.8 |
| 20260901003119 | 81 | 121 | 0.0 | 0.0 | 0.00 | 0.00 | 0.00 | 64 | 1011.9 |
| 20260901002347 | 82 | 121 | 0.0 | 0.0 | 0.00 | 0.00 | 0.00 | 62 | 1011.8 |
| 20260901001846 | 82 | 122 | 0.0 | 0.0 | 0.00 | 0.00 | 0.00 | 61 | 1011.8 |
| 20260901001347 | 83 | 121 | 0.0 | 0.0 | 0.00 | 0.00 | 0.00 | 59 | 1011.8 |
| 20260901000843 | 83 | 121 | 0.0 | 0.0 | 0.00 | 0.00 | 0.00 | 58 | 1011.8 |
| 20260901000345 | 84 | 121 | 0.0 | 0.0 | 0.00 | 0.00 | 0.00 | 57 | 1011.8 |
| 20260831235841 | 84 | 121 | 0.0 | 0.0 | 0.00 | 0.00 | 0.00 | 54 | 1011.8 |
| 20260831235341 | 84 | 121 | 0.0 | 0.0 | 0.00 | 0.00 | 0.00 | 53 | 1011.7 |
| 20260831234839 | 85 | 121 | 0.0 | 0.0 | 0.00 | 0.00 | 0.00 | 51 | 1011.8 |
| 20260831234339 | 85 | 121 | 0.0 | 0.0 | 0.00 | 0.00 | 0.00 | 52 | 1011.7 |
| 20260831233838 | 86 | 121 | 0.0 | 0.0 | 0.00 | 0.00 | 0.00 | 51 | 1011.7 |
| 20260831233336 | 87 | 121 | 0.0 | 0.0 | 0.00 | 0.00 | 0.00 | 50 | 1011.6 |
| 20260831232833 | 87 | 121 | 0.0 | 0.0 | 0.00 | 0.00 | 0.00 | 48 | 1011.7 |
| 20260831232333 | 87 | 121 | 0.0 | 0.0 | 0.00 | 0.00 | 0.00 | 49 | 1011.7 |
| 20260831231837 | 87 | 121 | 0.0 | 0.0 | 0.00 | 0.00 | 0.00 | 47 | 1011.7 |
| 20260831231333 | 88 | 121 | 0.0 | 0.0 | 0.00 | 0.00 | 0.00 | 46 | 1011.6 |
| 20260831230832 | 88 | 122 | 0.0 | 0.0 | 0.00 | 0.00 | 0.00 | 45 | 1011.7 |
| 20260831230332 | 89 | 121 | 0.0 | 0.0 | 0.00 | 0.00 | 0.00 | 44 | 1011.6 |
| 20260831225826 | 89 | 121 | 0.0 | 0.0 | 0.00 | 0.00 | 0.00 | 44 | 1011.6 |
| 20260831225319 | 90 | 121 | 0.0 | 0.0 | 0.00 | 0.00 | 0.00 | 43 | 1011.6 |
| 20260831224814 | 91 | 121 | 0.0 | 0.0 | 0.00 | 0.00 | 0.00 | 43 | 1011.7 |
| 20260831224308 | 92 | 156 | 0.0 | 0.9 | 0.00 | 0.00 | 0.00 | 43 | 1011.5 |
| 20260831223802 | 92 | 158 | 0.0 | 0.9 | 0.00 | 0.00 | 0.00 | 44 | 1011.6 |
| 20260831223255 | 92 | 138 | 0.0 | 0.0 | 0.00 | 0.00 | 0.00 | 44 | 1011.6 |
| 20260831222751 | 92 | 135 | 0.0 | 0.9 | 0.00 | 0.00 | 0.00 | 40 | 1011.6 |
| 20260831222745 | 92 | 134 | 0.0 | 0.9 | 0.00 | 0.00 | 0.00 | 41 | 1011.4 |
| 20260831222008 | 92 | 39 | 0.0 | 0.9 | 0.00 | 0.00 | 0.00 | 43 | 1011.5 |
| 20260831221505 | 92 | 75 | 0.0 | 0.9 | 0.00 | 0.00 | 0.00 | 40 | 1011.5 |
| 20260831220726 | 92 | 351 | 0.0 | 2.6 | 0.00 | 0.00 | 0.00 | 40 | 1011.4 |
| 20260831220219 | 92 | 108 | 0.9 | 5.2 | 0.00 | 0.00 | 0.00 | 41 | 1011.3 |
| 20260831215714 | 92 | 162 | 0.9 | 5.2 | 0.00 | 0.00 | 0.00 | 39 | 1011.4 |
| 20260831215208 | 92 | 113 | 0.0 | 2.6 | 0.00 | 0.00 | 0.00 | 42 | 1011.3 |
| 20260831214702 | 91 | 134 | 0.0 | 2.6 | 0.00 | 0.00 | 0.00 | 47 | 1011.3 |
| 20260831214156 | 91 | 143 | 0.0 | 0.9 | 0.00 | 0.00 | 0.00 | 43 | 1011.3 |
| 20260831213650 | 92 | 146 | 0.0 | 0.9 | 0.00 | 0.00 | 0.00 | 43 | 1011.3 |
| 20260831213144 | 92 | 146 | 0.0 | 0.9 | 0.00 | 0.00 | 0.00 | 40 | 1011.2 |
| 20260831212638 | 93 | 181 | 0.0 | 0.9 | 0.00 | 0.00 | 0.00 | 38 | 1011.2 |
| 20260831212132 | 92 | 118 | 0.0 | 1.7 | 0.00 | 0.00 | 0.00 | 40 | 1011.2 |
| 20260831211632 | 92 | 94 | 0.0 | 1.7 | 0.00 | 0.00 | 0.00 | 43 | 1011.2 |
| 20260831211129 | 91 | 148 | 0.0 | 0.9 | 0.00 | 0.00 | 0.00 | 44 | 1011.2 |
| 20260831210628 | 92 | 113 | 0.0 | 0.9 | 0.00 | 0.00 | 0.00 | 43 | 1011.1 |
| 20260831210126 | 92 | 7 | 0.9 | 2.6 | 0.00 | 0.00 | 0.00 | 48 | 1011.1 |
| 20260831205625 | 91 | 117 | 0.9 | 3.5 | 0.00 | 0.00 | 0.00 | 46 | 1011.1 |
| 20260831205123 | 91 | 148 | 0.9 | 3.5 | 0.00 | 0.00 | 0.00 | 42 | 1011.2 |
| 20260831204854 | 91 | 92 | 0.9 | 3.5 | 0.00 | 0.00 | 0.00 | 43 | 1011.3 |
| 20260831204124 | 91 | 160 | 0.0 | 2.6 | 0.00 | 0.00 | 0.00 | 45 | 1011.2 |
| 20260831203851 | 92 | 115 | 0.0 | 2.6 | 0.00 | 0.00 | 0.00 | 44 | 1011.2 |
| 20260831203123 | 92 | 345 | 0.0 | 0.9 | 0.00 | 0.00 | 0.00 | 44 | 1011.2 |
| 20260831202620 | 91 | 359 | 0.0 | 0.9 | 0.00 | 0.00 | 0.00 | 43 | 1011.2 |
| 20260831202121 | 92 | 18 | 0.0 | 0.9 | 0.00 | 0.00 | 0.00 | 43 | 1011.2 |
| 20260831201625 | 91 | 94 | 0.0 | 2.6 | 0.00 | 0.00 | 0.00 | 41 | 1011.1 |
| 20260831201619 | 91 | 122 | 0.0 | 0.9 | 0.00 | 0.00 | 0.00 | 45 | 1011.2 |
| 20260831200619 | 91 | 12 | 0.0 | 2.6 | 0.00 | 0.00 | 0.00 | 44 | 1011.1 |
| 20260831200119 | 92 | 109 | 0.0 | 1.7 | 0.00 | 0.00 | 0.00 | 47 | 1011.1 |
| 20260831195852 | 91 | 109 | 0.0 | 1.7 | 0.00 | 0.00 | 0.00 | 44 | 1011.0 |
| 20260831195114 | 92 | 103 | 0.9 | 4.3 | 0.00 | 0.00 | 0.00 | 48 | 1010.9 |
| 20260831194609 | 91 | 141 | 0.9 | 4.3 | 0.00 | 0.00 | 0.00 | 45 | 1010.9 |
| 20260831194103 | 91 | 94 | 0.0 | 2.6 | 0.00 | 0.00 | 0.00 | 46 | 1010.9 |
| 20260831193557 | 91 | 5 | 0.0 | 2.6 | 0.00 | 0.00 | 0.00 | 46 | 1010.9 |
| 20260831193051 | 91 | 3 | 0.0 | 3.5 | 0.00 | 0.00 | 0.00 | 49 | 1010.9 |
| 20260831192544 | 91 | 132 | 0.0 | 3.5 | 0.00 | 0.00 | 0.00 | 47 | 1011.0 |
| 20260831192311 | 91 | 156 | 0.0 | 4.3 | 0.00 | 0.00 | 0.00 | 48 | 1011.0 |
| 20260831191533 | 91 | 92 | 0.0 | 4.3 | 0.00 | 0.00 | 0.00 | 52 | 1011.1 |
| 20260831191027 | 90 | 319 | 0.0 | 2.6 | 0.00 | 0.00 | 0.00 | 52 | 1011.2 |
| 20260831190521 | 90 | 128 | 0.0 | 2.6 | 0.00 | 0.00 | 0.00 | 52 | 1011.2 |
| 20260831190247 | 90 | 342 | 0.0 | 2.6 | 0.00 | 0.00 | 0.00 | 54 | 1011.1 |
| 20260831185740 | 89 | 345 | 0.0 | 2.6 | 0.00 | 0.00 | 0.00 | 54 | 1011.0 |
| 20260831185003 | 89 | 113 | 0.9 | 2.6 | 0.00 | 0.00 | 0.00 | 55 | 1011.0 |
| 20260831184503 | 89 | 77 | 0.9 | 2.6 | 0.00 | 0.00 | 0.00 | 57 | 1011.0 |
| 20260831184236 | 88 | 356 | 0.9 | 2.6 | 0.00 | 0.00 | 0.00 | 57 | 1011.0 |
| 20260831183503 | 88 | 99 | 0.0 | 2.6 | 0.00 | 0.00 | 0.00 | 58 | 1010.9 |
| 20260831183005 | 88 | 132 | 0.0 | 1.7 | 0.00 | 0.00 | 0.00 | 60 | 1011.0 |
| 20260831182504 | 88 | 345 | 0.0 | 2.6 | 0.00 | 0.00 | 0.00 | 60 | 1011.0 |
| 20260831182003 | 87 | 110 | 0.0 | 2.6 | 0.00 | 0.00 | 0.00 | 62 | 1011.0 |
| 20260831181504 | 87 | 44 | 0.9 | 4.3 | 0.00 | 0.00 | 0.00 | 62 | 1011.0 |
| 20260831181003 | 87 | 4 | 0.9 | 4.3 | 0.00 | 0.00 | 0.00 | 66 | 1011.1 |
| 20260831180735 | 86 | 69 | 0.9 | 3.5 | 0.00 | 0.00 | 0.00 | 64 | 1011.2 |
| 20260831180009 | 86 | 113 | 0.9 | 2.6 | 0.00 | 0.00 | 0.00 | 67 | 1011.3 |
| 20260831180003 | 86 | 194 | 0.9 | 3.5 | 0.00 | 0.00 | 0.00 | 64 | 1011.2 |
| 20260831175003 | 85 | 83 | 0.9 | 2.6 | 0.00 | 0.00 | 0.00 | 67 | 1011.2 |
| 20260831174504 | 85 | 117 | 0.9 | 2.6 | 0.00 | 0.00 | 0.00 | 70 | 1011.3 |
| 20260831174003 | 84 | 91 | 0.9 | 3.5 | 0.00 | 0.00 | 0.00 | 68 | 1011.2 |
| 20260831173735 | 84 | 107 | 0.9 | 3.5 | 0.00 | 0.00 | 0.00 | 72 | 1011.3 |